Simultaneous Nadir Overpasses (SNOs) Predictions

Prediction of SNOs between FY3D and TERRA Satellite Orbit:

Table of predicted SNOs for the next 14.0 days since TLE Epoch: 12/10/2022
Index Date (FY3D) Time (FY3D) Lat,Lon (FY3D) SZA (FY3D ) Date (TERRA) Time (TERRA) Lat,Lon (TERRA) SZA (TERRA ) Distance(km) Time Diff (sec)
1 12/10/2022 10:42:02 -72.53,-160.77 84.64 12/10/2022 10:42:49 -72.51,-160.77 84.65 1.87 47
2 12/10/2022 11:32:47 72.41, 6.78 95.25 12/10/2022 11:32:12 72.43, 6.74 95.27 3.22 35
3 12/12/2022 22:46:21 72.61,-161.98 95.65 12/12/2022 22:47:32 72.62,-161.79 95.65 6.46 71
4 12/12/2022 23:37:03 -72.49, 5.58 84.48 12/12/2022 23:36:59 -72.46, 5.58 84.51 3.19 4
5 12/13/2022 00:27:39 71.91, 174.03 94.96 12/13/2022 00:26:30 71.95, 172.33 94.99 58.49 69
6 12/15/2022 11:41:21 72.53, 4.45 95.72 12/15/2022 11:41:42 72.55, 4.53 95.73 2.76 21
7 12/15/2022 12:32:04 -72.46, 171.93 84.36 12/15/2022 12:31:08 -72.45, 171.99 84.38 2.50 56
8 12/17/2022 23:45:36 -72.57, 3.36 84.15 12/17/2022 23:46:28 -72.59, 3.39 84.13 2.55 52
9 12/18/2022 00:36:21 72.46, 170.88 95.75 12/18/2022 00:35:52 72.46, 170.81 95.74 2.42 29
10 12/20/2022 11:49:58 72.83, 1.76 96.17 12/20/2022 11:51:09 72.74, 2.48 96.08 25.54 71
11 12/20/2022 12:40:36 -72.54, 169.68 84.13 12/20/2022 12:40:36 -72.53, 169.73 84.14 2.05 0
12 12/20/2022 13:31:15 72.13, -22.20 95.47 12/20/2022 13:30:04 72.19, -23.23 95.52 35.62 71
13 12/23/2022 00:44:53 72.56, 168.59 95.90 12/23/2022 00:45:19 72.56, 168.59 95.90 0.38 26
14 12/23/2022 01:35:36 -72.47, -23.90 84.20 12/23/2022 01:34:45 -72.46, -23.96 84.21 2.59 51



Historial Predications of SNOs between FY3D and TERRA
